DECAYED

STARLINK-1581, 46042 (Decayed)

Orbit data source: Space-Track

STARLINK-1581, 46042 was a payload satellite owned by SpaceX/Seattle (US) in LEO that was launched on Fri, 07 Aug 2020 UTC via an FALCON 9 launch vehicle from the Air Force Eastern Test Range (AFETR). Payload-class satellites include a variety of spacecraft equipped with specific instruments for various scientific and technological missions. These include communications satellites like Starlink; space stations such as the ISS; scientific satellites like the Hubble; Earth observation satellites from companies like Planet Labs, Umbra, and HawkEye 360; GPS; miniature CubeSats for education and research; and military/defense satellites.

Not visible in the next 10 days
Identifier
46042, 2020-055R
Orbit
Decayed
Country
Flag of USUS
Related business
Manufacturer
SpaceX/Seattle
Mission
Decayed Commercial Communications
Bus & Motor
STARLINK, Unknown motor
Mass
260 kg wet, ~248 kg dry
Launch date (UTC)
2020-08-07 (6 years ago)
Launch vehicle
FALCON 9
Launch site
Air Force Eastern Test Range (AFETR)
Object type
Payload
Rocket body
Debris
Shape & HBR
Box + 1 Pan, 10.1 m
Radar Cross Section
13.562 m², Large (>1 m²)

Expand to show TLE details & history
Last TLE update: 1 year ago

TLE from 1 year ago
0 STARLINK-1581
1 46042U 20055R   25085.54654721  .21643277  12320-4  34036-2 0  9994
2 46042  53.0365 211.8566 0011061 325.0063 134.0647 16.32901481256437
Epoch: 2025-03-26T13:07Z
TLE epoch observation values (Epoch: 2025-03-26T13:07:01.678Z)
Latitude
52.23323°
Longitude
-64.10141°
Altitude
196.073 km
Speed
7.792 km/s
True Right ascension
21h 07m 33s
True Declination
52° 03' 08"
Sunlit
Object was in daylight at epoch
Visualization orbit readout
Latitude
Unknown
Longitude
Unknown
Altitude
Unknown
Speed
Unknown
Apparent Right ascension
Unknown
Apparent Declination
Unknown
Sunlit
N/A
Visualization observer readout
Local Sidereal Time
05:35:53
Azimuth
Unknown
Elevation
Unknown
Doppler factor
Unknown
Orbital elements
Apogee altitude
192.302 km
Perigee altitude
177.783 km
Semi-major axis
6,563.179 km
Eccentricity
0.00111
Inclination
53.0365°
RAAN
211.8566°
Arg. of periapsis
325.0063°
True anomaly
134.15569°
Mean anomaly
134.0647°
Eccentric anomaly
134.1102°
Mean motion
4.08199 °/min
Orbital period
88.19 mins
BSTAR
0.0034036
Loading maneuver chart data...
Computing Atmospheric mass density...
Loading historical data...
Loading historical data...
Loading historical data...
Loading historical data...
Loading historical data...
Loading historical data...
Loading historical data...

Documentation

Showing up to 5 results
|